Edinburgh Airport, United Kingdom

9:49 AM BST on July 25, 2017 (GMT +0100)
Edinburgh Airport

Weather History for EGPH - January, 2013

Change the Weather History Date:

Saturday, January 12, 2013

  Actual Average Record
Temperature  
Mean Temperature 34 °F -  
Max Temperature 39 °F 43 °F 53 °F (1997)
Min Temperature 28 °F 33 °F 21 °F (2008)
Degree Days  
Heating Degree Days 32    
Moisture  
Dew Point 31 °F    
Average Humidity 92    
Maximum Humidity 100    
Minimum Humidity 75    
Precipitation  
Precipitation 0.00 in 0.07 in - ()
Sea Level Pressure  
Sea Level Pressure 30.02 in    
Wind  
Wind Speed 4 mph ()    
Max Wind Speed 12 mph    
Max Gust Speed -    
Visibility 6.1 miles    
Events      
Averages and records for this station are not official NWS values.
T = Trace of Precipitation, MM = Missing Value Source: Averaged Metar Reports

Daily Weather History Graph

Daily Weather History Graph

Search for Another Location

Airport or City:

Trip Planner

Search our weather history database for the weather conditions in past years. The results will help you decide how hot, cold, wet, or windy it might be!

Date:

Astronomy

Jan. 12, 2013 Rise Set
Actual Time 8:37 AM GMT 4:06 PM GMT
Civil Twilight 7:52 AM GMT 4:51 PM GMT
Nautical Twilight 7:04 AM GMT 5:39 PM GMT
Astronomical Twilight 6:19 AM GMT 6:24 PM GMT
Moon 8:28 AM GMT (1/12) 5:39 PM GMT (1/12)
Length of Visible Light 8h 59m
Length of Day
7h 29m
New Moon, 1% of the Moon is Illuminated
Jan 12
New Moon
Jan 18
First Quarter
Jan 27
Full
Feb 3
Last Quarter
Feb 10
New

Hourly Weather History & Observations

Time (GMT) Temp. Windchill Dew Point Humidity Pressure Visibility Wind Dir Wind Speed Gust Speed Precip Events Conditions
12:20 AM 33.8 °F 28.6 °F 32.0 °F 93% 29.95 in 6.2 mi SE 5.8 mph - N/A   Partly Cloudy
12:50 AM 35.6 °F 28.6 °F 32.0 °F 87% 29.95 in 6.2 mi SE 9.2 mph - N/A   Partly Cloudy
1:20 AM 35.6 °F 29.9 °F 33.8 °F 93% 29.95 in 6.2 mi ESE 6.9 mph - N/A   Scattered Clouds
1:50 AM 35.6 °F 31.7 °F 33.8 °F 93% 29.95 in 6.2 mi East 4.6 mph - N/A   Scattered Clouds
2:20 AM 35.6 °F 32.8 °F 33.8 °F 93% 29.95 in 6.2 mi Variable 3.5 mph - N/A   Partly Cloudy
2:50 AM 33.8 °F 29.6 °F 32.0 °F 93% 29.95 in 6.2 mi NNE 4.6 mph - N/A   Unknown
3:20 AM 32.0 °F 28.7 °F 30.2 °F 93% 29.95 in 6.2 mi NE 3.5 mph - N/A   Unknown
3:50 AM 32.0 °F - 32.0 °F 100% 29.95 in 6.2 mi Calm Calm - N/A   Unknown
4:20 AM 30.2 °F - 30.2 °F 100% 29.95 in 6.2 mi WSW 2.3 mph - N/A   Scattered Clouds
4:50 AM 30.2 °F - 30.2 °F 100% 29.95 in 5.6 mi Variable 2.3 mph - N/A   Scattered Clouds
5:20 AM 30.2 °F - 30.2 °F 100% 29.95 in 5.0 mi Calm Calm - N/A   Scattered Clouds
5:50 AM 32.0 °F - 30.2 °F 93% 29.95 in 5.0 mi Calm Calm - N/A   Mostly Cloudy
6:20 AM 30.2 °F - 30.2 °F 100% 29.95 in 5.6 mi Variable 2.3 mph - N/A   Mostly Cloudy
6:50 AM 30.2 °F - 30.2 °F 100% 29.95 in 6.2 mi Calm Calm - N/A   Mostly Cloudy
7:20 AM 30.2 °F - 30.2 °F 100% 29.98 in 6.2 mi Calm Calm - N/A   Mostly Cloudy
7:50 AM 32.0 °F - 30.2 °F 93% 29.98 in 6.2 mi Variable 2.3 mph - N/A   Mostly Cloudy
8:20 AM 32.0 °F - 30.2 °F 93% 29.98 in 6.2 mi Variable 2.3 mph - N/A   Mostly Cloudy
8:50 AM 30.2 °F - 30.2 °F 100% 29.98 in 6.2 mi WSW 2.3 mph - N/A   Scattered Clouds
9:20 AM 28.4 °F - 28.4 °F 100% 30.01 in 6.2 mi Calm Calm - N/A   Partly Cloudy
9:50 AM 30.2 °F - 30.2 °F 100% 30.01 in 6.2 mi Calm Calm - N/A   Partly Cloudy
10:20 AM 35.6 °F - 33.8 °F 93% 30.01 in 6.2 mi Calm Calm - N/A   Partly Cloudy
10:50 AM 37.4 °F 34.9 °F 33.8 °F 87% 30.01 in 6.2 mi Variable 3.5 mph - N/A   Partly Cloudy
11:20 AM 37.4 °F 32.8 °F 33.8 °F 87% 30.04 in 6.2 mi East 5.8 mph - N/A   Partly Cloudy
11:50 AM 39.2 °F 33.6 °F 33.8 °F 81% 30.04 in 6.2 mi East 8.1 mph - N/A   Partly Cloudy
12:20 PM 39.2 °F 33.6 °F 33.8 °F 81% 30.04 in 6.2 mi East 8.1 mph - N/A   Partly Cloudy
12:50 PM 39.2 °F 33.6 °F 33.8 °F 81% 30.04 in 6.2 mi ESE 8.1 mph - N/A   Scattered Clouds
1:20 PM 39.2 °F 33.0 °F 33.8 °F 81% 30.04 in 6.2 mi ESE 9.2 mph - N/A   Mostly Cloudy
1:50 PM 39.2 °F 32.0 °F 32.0 °F 75% 30.04 in 6.2 mi ESE 11.5 mph - N/A   Mostly Cloudy
2:20 PM 39.2 °F 34.2 °F 33.8 °F 81% 30.04 in 6.2 mi East 6.9 mph - N/A   Partly Cloudy
3:20 PM 39.2 °F 34.2 °F 33.8 °F 81% 30.04 in 6.2 mi East 6.9 mph - N/A   Scattered Clouds
3:50 PM 39.2 °F 34.2 °F 33.8 °F 81% 30.06 in 6.2 mi East 6.9 mph - N/A   Scattered Clouds
4:20 PM 37.4 °F 32.1 °F 33.8 °F 87% 30.06 in 6.2 mi East 6.9 mph - N/A   Partly Cloudy
4:50 PM 35.6 °F 30.7 °F 32.0 °F 87% 30.06 in 6.2 mi East 5.8 mph - N/A   Partly Cloudy
5:20 PM 35.6 °F 32.8 °F 32.0 °F 87% 30.06 in - SE 3.5 mph - N/A   Clear
5:50 PM 35.6 °F 32.8 °F 32.0 °F 87% 30.06 in - North 3.5 mph - N/A   Clear
6:20 PM 33.8 °F - 32.0 °F 93% 30.06 in - Calm Calm - N/A   Clear
6:50 PM 33.8 °F 30.8 °F 32.0 °F 93% 30.09 in - WNW 3.5 mph - N/A   Clear
7:20 PM 32.0 °F - 30.2 °F 93% 30.09 in - Calm Calm - N/A   Clear
7:50 PM 32.0 °F - 30.2 °F 93% 30.09 in 6.2 mi Calm Calm - N/A   Partly Cloudy
8:20 PM 30.2 °F 26.7 °F 30.2 °F 100% 30.09 in - Variable 3.5 mph - N/A   Clear
8:50 PM 30.2 °F - 28.4 °F 93% 30.09 in - Variable 2.3 mph - N/A   Clear
9:20 PM 30.2 °F - 28.4 °F 93% 30.09 in - Calm Calm - N/A   Clear
9:50 PM 30.2 °F - 30.2 °F 100% 30.12 in - Calm Calm - N/A   Clear
10:20 PM 30.2 °F - 30.2 °F 100% 30.12 in - Calm Calm - N/A   Clear
10:50 PM 30.2 °F - 28.4 °F 93% 30.12 in - Calm Calm - N/A   Clear
11:20 PM 30.2 °F - 28.4 °F 93% 30.12 in 6.2 mi Variable 2.3 mph - N/A   Partly Cloudy
11:50 PM 28.4 °F - 28.4 °F 100% 30.12 in 6.2 mi Variable 2.3 mph - N/A   Partly Cloudy